This is the latest recevied weather packets stored in our database for station/object HB9CYX-13. If no packets are shown the sender has not sent any weather packets the latest 10 day(s).
| Time | Temp. | Humidity | Pressure | Rain* | Wind** | Luminosity | Snow |
|---|---|---|---|---|---|---|---|
| 1777786097 | 12.22° C | 75% | 1018.3 hPa | 0 mm | - | - | - |
| 1777785359 | 11.67° C | 76% | 1018.3 hPa | 0 mm | - | - | - |
| 1777784621 | 11.67° C | 78% | 1018.2 hPa | 0 mm | - | - | - |
| 1777783884 | 11.11° C | 79% | 1018.4 hPa | 0 mm | - | - | - |
| 1777783145 | 11.11° C | 80% | 1018.4 hPa | 0 mm | - | - | - |
| 1777782407 | 11.11° C | 80% | 1018.4 hPa | 0 mm | - | - | - |
| 1777781670 | 11.11° C | 80% | 1018.3 hPa | 0 mm | - | - | - |
| 1777780932 | 11.11° C | 80% | 1018.2 hPa | 0 mm | - | - | - |
| 1777780194 | 11.11° C | 80% | 1018.3 hPa | 0 mm | - | - | - |
| 1777779456 | 11.67° C | 78% | 1018.2 hPa | 0 mm | - | - | - |
| 1777778718 | 11.67° C | 78% | 1018.3 hPa | 0 mm | - | - | - |
| 1777777980 | 11.67° C | 80% | 1018.3 hPa | 0 mm | - | - | - |
| 1777777242 | 11.11° C | 80% | 1018.3 hPa | 0 mm | - | - | - |
| 1777776504 | 11.67° C | 79% | 1018 hPa | 0 mm | - | - | - |
| 1777775766 | 11.67° C | 79% | 1018.3 hPa | 0 mm | - | - | - |
| 1777775028 | 11.67° C | 79% | 1018.4 hPa | 0 mm | - | - | - |
| 1777774290 | 11.67° C | 77% | 1018.5 hPa | 0 mm | - | - | - |
| 1777773552 | 12.22° C | 76% | 1018.5 hPa | 0 mm | - | - | - |
| 1777772814 | 12.22° C | 75% | 1018.6 hPa | 0 mm | - | - | - |
| 1777772076 | 12.78° C | 75% | 1018.6 hPa | 0 mm | - | - | - |
| 1777771338 | 12.78° C | 73% | 1018.5 hPa | 0 mm | - | - | - |
| 1777770600 | 12.78° C | 73% | 1018.6 hPa | 0 mm | - | - | - |
| 1777769863 | 13.33° C | 73% | 1018.5 hPa | 0 mm | - | - | - |
| 1777769124 | 13.33° C | 72% | 1018.6 hPa | 0 mm | - | - | - |
| 1777768387 | 13.33° C | 72% | 1018.7 hPa | 0 mm | - | - | - |
* Rain latest hour (hover to see other rain measurements)
** Current wind speed in m/s (hover to see current wind gust speed)